User: anonymous   Login
Location: Unspecified
(0.0000°N, 0.0000°E)
Time: 11:04:35
(UTC+00:00)
Language:

STARLINK-33581 - Orbit

View from above orbital plane
View from above orbital plane
View from above satellite
View from above satellite

Ground track
Ground track

The orbit is defined by the following mean orbital elements,

1 62784U          26145.50768553 +.00000000 +00000-0 +10407-2 0 00001
2 62784  53.1599 325.5466 0000987  97.1372 262.9741 15.31735649    00
Epoch (UTC): 25 May 2026 12:11:04
Eccentricity: 0.0000987
inclination: 53.1599°
perigee height: 470 km
apogee height: 471 km
right ascension of ascending node: 325.5466°
argument of perigee: 97.1372°
revolutions per day: 15.31735649
mean anomaly at epoch: 262.9741°

The dashed part of the orbit path shows where the satellite is in the earth's shadow,  

DLR